This is the latest recevied weather packets stored in our database for station/object CALDNA-WX. If no packets are shown the sender has not sent any weather packets the latest 10 day(s).
| Time | Temp. | Humidity | Pressure | Rain* | Wind** | Luminosity | Snow |
|---|---|---|---|---|---|---|---|
| 1778238922 | 2.22° C | 76% | 983.6 hPa | 0 mm | - | - | - |
| 1778238046 | 1.67° C | 76% | 983.6 hPa | 0 mm | - | - | - |
| 1778237125 | 1.67° C | 76% | 982.7 hPa | 0 mm | - | - | - |
| 1778236242 | 1.67° C | 75% | 983.7 hPa | 0 mm | - | - | - |
| 1778235325 | 2.22° C | 75% | 983.7 hPa | 0 mm | - | - | - |
| 1778234446 | 2.22° C | 75% | 983.7 hPa | 0 mm | - | - | - |
| 1778233525 | 2.22° C | 74% | 983 hPa | 0 mm | - | - | - |
| 1778232638 | 2.78° C | 81% | 983.7 hPa | 0 mm | - | - | - |
| 1778231725 | 2.78° C | 81% | 983.7 hPa | 0 mm | - | - | - |
| 1778230849 | 2.78° C | 81% | 983.7 hPa | 0 mm | - | - | - |
| 1778229924 | 2.78° C | 77% | 983.2 hPa | 0 mm | - | - | - |
| 1778229043 | 2.78° C | 74% | 983 hPa | 0 mm | - | - | - |
| 1778228124 | 3.33° C | 74% | 983 hPa | 0 mm | - | - | - |
| 1778227251 | 3.33° C | 74% | 983 hPa | 0 mm | - | - | - |
| 1778226325 | 3.89° C | 78% | 983.9 hPa | 0 mm | - | - | - |
| 1778225443 | 3.89° C | 78% | 983.9 hPa | 0 mm | - | - | - |
| 1778224524 | 3.89° C | 78% | 983.9 hPa | 0 mm | - | - | - |
| 1778223652 | 3.89° C | 78% | 983.9 hPa | 0 mm | - | - | - |
| 1778222724 | 3.89° C | 57% | 983.5 hPa | 0 mm | - | - | - |
| 1778221839 | 4.44° C | 67% | 984 hPa | 0 mm | - | - | - |
| 1778220924 | 4.44° C | 67% | 984 hPa | 0 mm | - | - | - |
| 1778220058 | 5° C | 67% | 984 hPa | 0 mm | - | - | - |
| 1778219123 | 5° C | 61% | 984.7 hPa | 0 mm | - | - | - |
| 1778218244 | 5° C | 68% | 984.3 hPa | 0 mm | - | - | - |
| 1778217323 | 5° C | 68% | 984.3 hPa | 0 mm | - | - | - |
* Rain latest hour (hover to see other rain measurements)
** Current wind speed in m/s (hover to see current wind gust speed)